Location: Campestrin
(46.4667°N, 11.7167°E)
Time: 16:24:10
(UTC+00:00)

BREEZE-M DEB (TANK) - Pass Details

Date: 18 April 2021
Orbit: 793 x 34259 km, 45.8° (Epoch: 06 May)

Event Time Altitude Azimuth Distance (km) Brightness Sun altitude
Rises 19:36:39 0° 265° (W) 3,955 8.0 -15.0°
Reaches altitude 10° 19:39:23 10° 265° (W) 2,555 6.9 -15.3°
Maximum altitude 19:43:56 85° 177° (S) 818 3.6 -16.0°
Enters shadow 19:48:27 15° 90° (E) 2,600 5.8 -16.6°
